Hourly Data Report for October 21, 2020

VICTORIA UNIVERSITY CS
BRITISH COLUMBIA
Current Station Operator: ECCC - MSC

48°27'25.200" N
123°18'16.600" W
60.10 m
1018598
71783
WYJ

Download Data

Hourly Data (October 2020)
Hourly Data Report for October 21, 2020
TIME
LST
Temp Definition
°C
Dew Point Definition
°C
Rel Hum Definition
%
Precip. Amount Definition
mm

Wind Dir Definition
10's deg

Wind Spd Definition
km/h
Visibility Definition
km
Stn Press Definition
kPa
Hmdx Definition


Wind Chill Definition


Weather Definition


00:00 7.7 4.1 78 0.0 25 4   101.14     LegendNANA
01:00 6.7 4.4 85 0.0 25 4   101.14     LegendNANA
02:00 6.4 4.7 89 0.0 27 3   101.14     LegendNANA
03:00 5.3 3.9 91 0.0 24 3   101.10     LegendNANA
04:00 4.5 3.6 94 0.0 27 3   101.08     LegendNANA
05:00 4.0 3.4 96 0.0 26 4   101.09     LegendNANA
06:00 4.0 3.3 95 0.0 26 3   101.11     LegendNANA
07:00 4.1 3.3 95 0.0 24 2   101.17     LegendNANA
08:00 5.3 4.8 96 0.0 34 3   101.22     LegendNANA
09:00 9.7 4.9 72 0.0 33 5   101.28     LegendNANA
10:00 9.9 4.3 68 0.0 34 4   101.33     LegendNANA
11:00 12.3 4.2 58 0.0 31 4   101.35     LegendNANA
12:00 9.7 3.9 67 0.0 9 1   101.39     LegendNANA
13:00 11.9 3.2 55 0.0 4 7   101.43     LegendNANA
14:00 10.8 4.8 66 0.0 2 6   101.46     LegendNANA
15:00 11.0 4.7 65 0.0 33 4   101.51     LegendNANA
16:00 10.5 3.6 62 0.0 33 8   101.55     LegendNANA
17:00 9.2 4.3 71 0.0 32 4   101.60     LegendNANA
18:00 5.9 4.5 91 0.0 25 1   101.63     LegendNANA
19:00 5.0 4.3 95 0.0 24 3   101.68     LegendNANA
20:00 4.6 4.1 97 0.0 23 3   101.73     LegendNANA
21:00 4.1 3.6 96 0.0 25 3   101.78     LegendNANA
22:00 3.4 2.9 96 0.0 25 2   101.82     LegendNANA
23:00 2.9 2.4 96 0.0 27 1   101.85     LegendNANA

Notes on Data Quality.

Legend

  • E = Estimated
  • M = Missing
  • NA = Not Available*
  • [empty] = Indicates an unobserved value
Date modified: